[[{"header":{"parameterUnit":"m.s-1","parameterCategory":1,"la1":30.2991,"la2":30.254,"lo1":-89.0895,"lo2":-89.0444,"dy":0.0017,"dx":0.0017,"nx":28,"ny":28,"refTime":"2024-08-16T21:00:00:Z","depth":0,"parameterNumber":2,"parameterNumberName":"U-component_of_WINDS"},"data":[0,0,0,0,0,0,0,0,0,0,0,0,0,0,0,0,0,0,0,0,0,0,0,0,0,0,0,0,0,0,0,0,0,0,0,0,0,0,0,0,0,0,0,0,0,0,0,0,0,0,0,0,0,0,0,0,0,0,2.7318,2.732,0,2.7469,2.747,2.7472,2.7442,2.7439,2.7436,2.7434,2.7597,2.7603,2.761,0,0,0,0,0,0,0,0,0,0,0,0,0,2.7012,2.7018,2.7318,2.732,2.7322,2.7468,2.747,2.7473,2.7442,2.7439,2.7436,2.7432,2.7594,2.7603,2.7611,0,0,0,0,0,0,0,0,0,0,0,0,0,2.7152,2.702,2.7317,2.7324,2.7326,2.7468,2.7471,2.7473,2.7443,2.7439,2.7435,2.7431,2.7592,2.7602,2.7612,2.7759,0,0,2.7644,2.7648,0,0,0,0,0,0,0,0,2.7145,2.7164,2.7321,2.7324,2.7326,2.7432,2.7422,2.7569,2.7444,2.7399,2.7434,2.7429,2.7546,2.756,2.7597,2.7767,2.7774,2.7645,2.7651,2.7655,2.7658,0,0,0,0,0,0,0,2.7135,2.7157,2.7378,2.7324,2.7327,2.7322,2.7337,2.745,2.7494,2.7403,2.7401,2.7418,2.7547,2.7587,2.7601,2.7776,2.7644,2.7654,2.766,2.7664,2.8077,2.8081,0,0,0,0,0,0,2.7122,2.7149,2.7373,2.7382,2.7223,2.7331,2.7348,2.7402,2.7493,2.7502,2.7422,2.7416,2.7572,2.7589,2.7607,2.7786,2.7655,2.7665,2.7671,2.8072,2.8078,2.8083,0,0,0,0,0,0,2.7115,2.7142,2.7367,2.7265,2.7293,2.7341,2.7402,2.7408,2.7448,2.7507,2.7516,2.7455,2.7569,2.7592,2.7721,2.7791,2.767,2.7679,2.8067,2.8074,2.808,2.8146,0,0,0,0,0,0,2.7106,2.714,2.7194,2.7267,2.7299,2.7477,2.7406,2.7414,2.7465,2.746,2.7541,2.755,2.7568,2.7706,2.7732,2.7804,2.7687,2.8061,2.807,2.8078,2.8138,2.8154,2.8169,0,0,0,0,0,2.7096,2.7208,2.7197,2.7224,2.7367,2.7481,2.75,2.7515,2.7471,2.7528,2.7566,2.7548,2.7779,2.772,2.7748,2.7824,2.8056,2.8067,2.8077,2.8131,2.8151,2.8168,0,0,0,0,0,0,2.7145,2.7218,2.7206,2.7345,2.7406,2.7475,2.7547,2.7536,2.7613,2.7605,2.7624,2.7642,2.7774,2.7812,2.7744,2.7973,2.7912,2.7929,2.7943,2.7963,2.7978,2.7966,2.7696,0,0,0,0,0,2.7172,2.7255,2.7315,2.7431,2.7463,2.75,2.755,2.7556,2.7622,2.7649,2.7696,2.7763,2.7851,2.7909,2.7993,2.8143,2.8161,2.821,2.8225,2.8237,2.8252,2.8336,2.8359,2.8118,2.8118,2.8118,0,0,2.7228,2.7278,2.733,2.7443,2.7491,2.758,2.7522,2.7618,2.7684,2.7664,2.7788,2.7826,2.7902,2.8043,2.8107,2.8079,2.8323,2.8251,2.826,2.8269,2.8349,2.8372,2.8392,2.8125,2.8124,2.8123,0,0,2.7377,2.7422,2.7525,2.7574,2.7648,2.7671,2.7696,2.7767,2.779,2.7915,2.7902,2.7983,2.8134,2.8189,2.8237,2.8407,2.8394,2.8434,2.8515,2.8597,2.8616,2.8633,2.8695,2.8717,2.8448,2.8449,2.8449,0,2.7439,2.7569,2.758,2.7677,2.7728,2.7711,2.7816,2.7865,2.7964,2.8001,2.7966,2.8155,2.8206,2.8359,2.8401,2.844,2.8471,2.8425,2.8611,2.8629,2.8645,2.8704,2.8727,2.8453,2.8453,2.8452,2.8452,0,2.7642,2.7733,2.7807,2.79,2.7959,2.8061,2.809,2.8149,2.815,2.8179,2.8308,2.8367,2.8463,2.85,2.8503,2.8655,2.8635,2.8606,2.8546,2.8672,2.8728,2.8751,2.8459,2.8458,2.8457,2.8455,0,0,2.7826,2.7923,2.7951,2.7993,2.8073,2.8145,2.8247,2.8338,2.839,2.8459,2.8546,2.8674,2.8647,2.8702,2.8711,2.8783,2.8915,2.8745,2.8747,2.8776,2.9088,2.911,2.9136,2.8907,2.8911,2.8915,2.9082,0,2.7983,2.8158,2.8172,2.8332,2.8417,2.8403,2.8491,2.8552,2.8581,2.866,2.8694,2.8785,2.8742,2.8775,2.8845,2.8884,2.8979,2.8872,2.8991,2.8995,2.8972,2.9165,2.9189,2.9344,2.9104,2.9108,2.9111,0,2.8189,2.8261,2.8429,2.8498,2.8534,2.8613,2.8699,2.8774,2.8843,2.886,2.892,2.892,2.9028,2.8963,2.9112,2.9039,2.9089,2.9116,2.9122,2.9135,2.9061,2.9184,2.9394,2.9417,2.9145,2.9143,2.914,0,2.8308,2.8448,2.8566,2.8603,2.8686,2.8742,2.878,2.8845,2.89,2.8976,2.9012,2.91,2.9149,2.9219,2.9244,2.9194,2.9393,2.9329,2.9412,2.9411,2.9455,2.9452,2.9676,2.9486,2.9485,2.9485,2.9484,0,2.8482,2.8585,2.8621,2.8694,2.881,2.8826,2.8942,2.8977,2.9035,2.9117,2.911,2.9188,2.9215,2.9298,2.9319,2.944,2.9463,2.9481,2.9485,2.9482,2.948,2.9515,2.9505,2.9491,2.949,2.9488,2.9487,0,2.8634,2.8662,2.879,2.8858,2.8878,2.8961,2.902,2.9092,2.912,2.9224,2.9249,2.9295,2.9392,2.9423,2.9542,2.9555,2.9698,2.9692,2.9673,2.9674,2.9755,2.9747,3.0011,3.0047,2.9831,2.9833,2.9835,0,2.8744,2.8823,2.8899,2.8952,2.8991,2.9077,2.9132,2.9151,2.921,2.9295,2.9357,2.9453,2.953,2.9687,2.9732,2.9823,2.9821,2.9907,2.9834,2.9829,2.9823,2.9818,2.9827,2.9921,2.9923,2.9925,2.9926,0,2.8936,2.8945,2.9024,2.9108,2.9173,2.9241,2.9306,2.9351,2.938,2.9447,2.9544,2.9604,2.9724,2.982,2.9913,2.9955,2.9947,2.9948,2.9972,2.997,2.9956,2.9966,2.9711,2.9942,2.9941,2.994,2.9939,2.9938,2.9071,2.9141,2.9205,2.9293,2.9344,2.9405,2.9476,2.9512,2.9594,2.9691,2.9698,2.9805,2.9874,2.9997,3.0043,3.0129,3.0104,3.0139,3.0148,3.0157,3.0163,2.9942,3.0146,3.0145,3.0145,3.0145,3.0144,0,2.9263,2.9304,2.9384,2.9475,2.9545,2.9528,2.96,2.9661,2.9753,2.9817,2.9893,3.0007,3.01,3.0152,3.0246,3.0304,3.0303,3.0328,3.0325,3.0335,3.0179,3.0149,3.0328,3.0328,3.0328,3.0328,3.0328,3.0328,2.9371,2.9489,2.9507,2.965,2.9691,2.9793,2.9836,2.9893,2.9944,3.0071,3.0147,3.0179,3.024,3.0338,3.0423,3.0436,3.0472,3.05,3.0511,3.0364,3.0346,3.0328,3.03,3.0507,3.0507,3.0659,3.0661,3.0662]},{"header":{"parameterUnit":"m.s-1","parameterCategory":1,"la1":30.2991,"la2":30.254,"lo1":-89.0895,"lo2":-89.0444,"dy":0.0017,"dx":0.0017,"nx":28,"ny":28,"refTime":"2024-08-16T21:00:00:Z","depth":0,"parameterNumber":3,"parameterNumberName":"V-component_of_WINDS"},"data":[0,0,0,0,0,0,0,0,0,0,0,0,0,0,0,0,0,0,0,0,0,0,0,0,0,0,0,0,0,0,0,0,0,0,0,0,0,0,0,0,0,0,0,0,0,0,0,0,0,0,0,0,0,0,0,0,0,0,3.176,3.1762,0,3.1909,3.191,3.1912,3.1914,3.1912,3.191,3.1909,3.2057,3.2063,3.2068,0,0,0,0,0,0,0,0,0,0,0,0,0,3.147,3.1476,3.176,3.1762,3.1764,3.1908,3.191,3.1912,3.1914,3.1912,3.191,3.1908,3.2055,3.2062,3.2069,0,0,0,0,0,0,0,0,0,0,0,0,0,3.1605,3.1478,3.1759,3.1782,3.1786,3.1908,3.191,3.1913,3.1915,3.1912,3.1909,3.1907,3.2053,3.2061,3.207,3.2179,0,0,3.2096,3.21,0,0,0,0,0,0,0,0,3.1598,3.1616,3.1777,3.1781,3.1785,3.189,3.1863,3.2002,3.1916,3.1866,3.1908,3.1905,3.2004,3.2016,3.205,3.2186,3.2192,3.2097,3.2102,3.2106,3.2108,0,0,0,0,0,0,0,3.1588,3.1609,3.1819,3.1779,3.1784,3.1782,3.1798,3.1889,3.1948,3.187,3.187,3.1888,3.2005,3.2042,3.2053,3.2194,3.2097,3.2104,3.2109,3.2113,3.242,3.2423,0,0,0,0,0,0,3.1575,3.1602,3.1814,3.1823,3.1683,3.179,3.1808,3.1859,3.1947,3.1958,3.189,3.1888,3.2029,3.2044,3.2059,3.2188,3.2106,3.2114,3.2118,3.2417,3.2421,3.2424,0,0,0,0,0,0,3.1569,3.1594,3.1808,3.1713,3.174,3.1798,3.1855,3.1863,3.19,3.1963,3.1973,3.1917,3.2027,3.2047,3.2148,3.2193,3.2117,3.2125,3.2413,3.2418,3.2422,3.245,0,0,0,0,0,0,3.1561,3.1592,3.1636,3.1714,3.1745,3.1897,3.1858,3.1868,3.1915,3.1913,3.1991,3.2001,3.2026,3.2135,3.2156,3.2204,3.2132,3.241,3.2415,3.2421,3.2445,3.2454,3.2463,0,0,0,0,0,3.155,3.1638,3.1638,3.1664,3.1801,3.1899,3.1917,3.1945,3.1919,3.1962,3.2001,3.1999,3.2185,3.2145,3.2169,3.222,3.2407,3.2414,3.242,3.2441,3.2453,3.2462,0,0,0,0,0,0,3.1564,3.1649,3.165,3.1766,3.1825,3.19,3.1955,3.1958,3.2025,3.202,3.2051,3.2069,3.2168,3.2204,3.2159,3.2327,3.2292,3.2304,3.2299,3.2311,3.232,3.2308,3.2139,0,0,0,0,0,3.1581,3.1655,3.1725,3.182,3.185,3.1897,3.1941,3.1957,3.202,3.2045,3.2092,3.2151,3.2222,3.2269,3.2339,3.245,3.2464,3.2496,3.2505,3.2512,3.2521,3.2578,3.2591,3.2446,3.2446,3.2446,0,0,3.1616,3.1671,3.1717,3.1824,3.1872,3.1946,3.1919,3.1999,3.2053,3.2057,3.2154,3.219,3.2258,3.2363,3.2412,3.2396,3.2564,3.2521,3.2526,3.2532,3.2586,3.26,3.2612,3.2451,3.245,3.2449,0,0,3.1717,3.1768,3.1851,3.1899,3.1972,3.2002,3.2021,3.2095,3.2119,3.2217,3.222,3.2283,3.2407,3.2454,3.2494,3.2606,3.2605,3.2628,3.2674,3.2729,3.274,3.275,3.2787,3.28,3.2638,3.2638,3.2638,0,3.1751,3.1864,3.1893,3.1972,3.2017,3.2024,3.2106,3.215,3.2242,3.2271,3.2253,3.2405,3.2451,3.2565,3.2592,3.2625,3.2645,3.2619,3.2737,3.2747,3.2757,3.2792,3.2806,3.264,3.264,3.2639,3.2639,0,3.19,3.1977,3.2035,3.2123,3.2174,3.2255,3.2293,3.2341,3.2351,3.2382,3.2479,3.2535,3.2613,3.2642,3.2654,3.2756,3.2743,3.273,3.2696,3.2772,3.2805,3.2819,3.2643,3.2642,3.2642,3.2641,0,0,3.2016,3.2115,3.2136,3.2173,3.2252,3.2311,3.2389,3.2466,3.2505,3.2567,3.263,3.2733,3.272,3.2765,3.2781,3.2829,3.2909,3.281,3.2812,3.2824,3.302,3.3027,3.3043,3.2909,3.2912,3.2914,3.3013,0,3.2122,3.2263,3.2289,3.2411,3.248,3.2485,3.2552,3.2606,3.2636,3.2697,3.2729,3.28,3.278,3.2806,3.2854,3.289,3.2949,3.2883,3.2965,3.2968,3.2946,3.3061,3.307,3.3161,3.3027,3.3029,3.3031,0,3.2267,3.2331,3.2459,3.2524,3.2554,3.2614,3.2684,3.2744,3.2803,3.282,3.2869,3.2878,3.2956,3.2918,3.3023,3.2977,3.3012,3.3034,3.3038,3.3045,3.3003,3.3068,3.3192,3.3204,3.3052,3.305,3.3049,0,3.2333,3.2452,3.2543,3.2575,3.2654,3.2695,3.273,3.2786,3.2829,3.289,3.2917,3.2985,3.3022,3.3073,3.31,3.3071,3.3201,3.3167,3.3215,3.3214,3.3241,3.3239,3.3369,3.3268,3.3267,3.3267,3.3267,0,3.2448,3.2526,3.2573,3.2629,3.2714,3.2741,3.2824,3.2857,3.2906,3.2966,3.2975,3.303,3.3062,3.3121,3.3142,3.3223,3.324,3.3254,3.3258,3.3253,3.325,3.3274,3.3268,3.3271,3.327,3.3269,3.3269,0,3.2537,3.2573,3.2671,3.2737,3.2755,3.2814,3.2869,3.2921,3.295,3.3024,3.3043,3.3088,3.3157,3.3188,3.3274,3.3288,3.3379,3.338,3.3359,3.336,3.3405,3.3399,3.3553,3.3573,3.3461,3.3462,3.3463,0,3.2607,3.2667,3.2738,3.2778,3.2814,3.288,3.2923,3.2951,3.2995,3.3064,3.3107,3.3176,3.3233,3.3343,3.3381,3.3445,3.3446,3.3496,3.3456,3.3446,3.3443,3.3438,3.3442,3.3502,3.3504,3.3504,3.3505,0,3.2727,3.274,3.2803,3.2871,3.2922,3.2976,3.303,3.3062,3.3097,3.3146,3.3217,3.3261,3.3347,3.3414,3.348,3.3513,3.3513,3.3517,3.3531,3.3525,3.3508,3.3514,3.3376,3.3514,3.3513,3.3512,3.3512,3.3511,3.2806,3.2857,3.2914,3.2982,3.3025,3.3073,3.3124,3.3158,3.3218,3.3291,3.3303,3.3377,3.343,3.3518,3.3553,3.3609,3.3597,3.3618,3.3623,3.3627,3.3628,3.3501,3.3621,3.3621,3.3621,3.3621,3.3621,0,3.2922,3.2959,3.3021,3.3095,3.3147,3.3144,3.3202,3.3245,3.3311,3.336,3.3415,3.3494,3.3558,3.36,3.3664,3.3701,3.3702,3.3716,3.3713,3.3719,3.3637,3.3617,3.3713,3.3713,3.3713,3.3713,3.3713,3.3713,3.2989,3.3074,3.3093,3.3198,3.3233,3.3306,3.3338,3.3382,3.3421,3.3509,3.3562,3.3589,3.3634,3.3701,3.3758,3.3768,3.379,3.3804,3.3813,3.3735,3.3726,3.3716,3.3697,3.3809,3.3809,3.389,3.3891,3.3892]}]]